This demonstration page uses our WeatherBlox Daily Observations layout. Learn more.

40.92945, -100.16068

Hourly Observations for March 10, 2015

Temp ( °F °C ) Dew Point ( °F °C ) Humidity (%) Winds ( mph kmh ) Pressure ( in mb ) Visibility ( mi km ) Precip ( " mm )
12:15 am 00:15 Clear 47 8.5 24 -4.5 40 40 S 15 24 29.94 1014 10 16.0934 N/A
12:35 am 00:35 Clear 47 8.1 24 -4.3 42 42 SSW 12 19 29.94 1014 10 16.0934 N/A
12:55 am 00:55 Clear 46 8 25 -4 43 43 SSW 9 15 29.94 1014 10 16.0934 N/A
1:15 am 01:15 Clear 39 3.8 24 -4.5 55 55 N 6 9 29.97 1015 10 16.0934 N/A
1:35 am 01:35 Clear 42 5.8 26 -3.6 51 51 Calm 29.94 1014 10 16.0934 N/A
1:55 am 01:55 Clear 46 8 26 -3.1 46 46 SSW 3 6 29.94 1014 10 16.0934 N/A
2:15 am 02:15 Clear 44 6.8 27 -2.9 50 50 S 6 9 29.94 1014 10 16.0934 N/A
2:35 am 02:35 Clear 42 5.8 26 -3.1 53 53 SSE 5 7 29.94 1014 10 16.0934 N/A
2:55 am 02:55 Clear 42 5.5 28 -2.2 58 58 SE 6 9 29.94 1014 10 16.0934 N/A
3:15 am 03:15 Clear 37 2.6 26 -3.1 66 66 Calm 29.97 1015 10 16.0934 N/A
3:35 am 03:35 Clear 33 0.7 25 -3.8 72 72 Calm 30 1016 10 16.0934 N/A
3:55 am 03:55 Clear 28 -2.2 22 -5.6 78 78 NNW 3 6 30.03 1017 10 16.0934 N/A
4:15 am 04:15 Clear 28 -2.5 22 -5.7 79 79 NNW 3 6 30.03 1017 10 16.0934 N/A
4:35 am 04:35 Clear 29 -1.6 24 -4.6 80 80 W 7 11 30 1016 10 16.0934 N/A
4:55 am 04:55 Clear 29 -1.5 23 -4.8 78 78 W 8 13 30 1016 10 16.0934 N/A
5:15 am 05:15 Clear 29 -1.5 24 -4.4 81 81 W 6 9 30 1016 10 16.0934 N/A
5:35 am 05:35 Clear 28 -2 25 -4.1 86 86 WNW 8 13 30.03 1017 10 16.0934 N/A
5:55 am 05:55 Clear 29 -1.4 25 -3.8 84 84 WNW 9 15 30.03 1017 10 16.0934 N/A
6:15 am 06:15 Clear 29 -1.7 24 -4.3 83 83 WNW 8 13 30.03 1017 10 16.0934 N/A
6:35 am 06:35 Clear 27 -2.6 24 -4.6 86 86 W 8 13 30.03 1017 10 16.0934 N/A
6:55 am 06:55 Clear 27 -2.6 24 -4.7 86 86 WNW 9 15 30.03 1017 10 16.0934 N/A
7:15 am 07:15 Clear 28 -2.5 23 -4.9 84 84 WNW 9 15 30.03 1017 10 16.0934 N/A
7:35 am 07:35 Clear 29 -1.9 23 -5 80 80 WNW 8 13 30.03 1017 10 16.0934 N/A
7:55 am 07:55 Clear 28 -2.1 23 -5.1 80 80 WNW 9 15 30.06 1018 10 16.0934 N/A
8:15 am 08:15 Sunny 29 -1.8 23 -5 79 79 WNW 8 13 30.06 1018 10 16.0934 N/A
8:35 am 08:35 Sunny 30 -1.1 24 -4.5 78 78 WNW 9 15 30.06 1018 10 16.0934 N/A
8:55 am 08:55 Sunny 32 0 25 -4.1 74 74 WNW 8 13 30.06 1018 10 16.0934 N/A
9:15 am 09:15 Sunny 35 1.6 26 -3.2 71 71 WNW 9 15 30.06 1018 10 16.0934 N/A
9:35 am 09:35 Sunny 39 3.7 27 -3 62 62 WNW 12 19 30.03 1017 10 16.0934 N/A
9:55 am 09:55 Sunny 42 5.5 26 -3.3 53 53 WNW 15 24 30.03 1017 10 16.0934 N/A
10:15 am 10:15 Sunny 45 7.2 27 -3 49 49 WNW 12 19 30 1016 10 16.0934 N/A
10:35 am 10:35 Sunny 48 8.9 27 -2.7 44 44 WNW 13 20 30 1016 10 16.0934 N/A
10:55 am 10:55 Sunny 52 11 28 -2.5 39 39 WNW 12 19 30 1016 10 16.0934 N/A
11:15 am 11:15 Sunny 54 12.4 27 -2.8 35 35 WNW 13 20 30 1016 10 16.0934 N/A
11:35 am 11:35 Sunny 57 14.1 27 -2.6 32 32 WNW 13 20 29.97 1015 10 16.0934 N/A
11:55 am 11:55 Sunny 60 15.8 28 -2.5 29 29 NW 10 17 29.97 1015 10 16.0934 N/A
12:15 pm 12:15 Sunny 63 17.1 27 -2.6 26 26 WNW 10 17 29.94 1014 10 16.0934 N/A
12:35 pm 12:35 Sunny 65 18.4 26 -3.3 23 23 NW 9 15 29.94 1014 10 16.0934 N/A
12:55 pm 12:55 Sunny 66 18.9 24 -4.6 20 20 NW 15 24 29.94 1014 10 16.0934 N/A
1:15 pm 13:15 Sunny 67 19.6 24 -4.6 19 19 NW 14 22 29.91 1013 10 16.0934 N/A
1:35 pm 13:35 Sunny 68 20.2 24 -4.6 18 18 WNW 14 22 29.91 1013 10 16.0934 N/A
1:55 pm 13:55 Sunny 69 20.3 23 -5 18 18 WNW 15 24 29.91 1013 10 16.0934 N/A
2:15 pm 14:15 Sunny 69 20.3 23 -5.2 18 18 WNW 12 19 29.91 1013 10 16.0934 N/A
2:35 pm 14:35 Sunny 69 20.5 23 -4.9 18 18 W 9 15 29.88 1012 10 16.0934 N/A
2:55 pm 14:55 Sunny 70 21 23 -4.9 17 17 NW 10 17 29.88 1012 10 16.0934 N/A
3:15 pm 15:15 Sunny 70 21 23 -4.9 17 17 W 8 13 29.88 1012 10 16.0934 N/A
3:35 pm 15:35 Sunny 71 21.6 21 -5.9 15 15 NW 8 13 29.88 1012 10 16.0934 N/A
3:55 pm 15:55 Sunny 71 21.7 20 -6.5 15 15 N 10 17 29.88 1012 10 16.0934 N/A
4:15 pm 16:15 Sunny 71 21.6 19 -7 14 14 NNW 7 11 29.88 1012 10 16.0934 N/A
4:35 pm 16:35 Sunny 70 21.3 19 -7.5 14 14 NW 9 15 29.88 1012 10 16.0934 N/A
4:55 pm 16:55 Sunny 71 21.4 18 -7.6 14 14 NW 6 9 29.91 1013 10 16.0934 N/A
5:15 pm 17:15 Sunny 71 21.5 19 -7.3 14 14 N 9 15 29.91 1013 10 16.0934 N/A
5:35 pm 17:35 Sunny 71 21.4 19 -7.4 14 14 NNW 10 17 29.91 1013 10 16.0934 N/A
5:55 pm 17:55 Sunny 70 21.2 19 -7.4 14 14 N 8 13 29.91 1013 10 16.0934 N/A
6:15 pm 18:15 Sunny 69 20.7 19 -7.3 15 15 NNE 12 19 29.91 1013 10 16.0934 N/A
6:35 pm 18:35 Sunny 68 20.1 19 -7.1 15 15 N 9 15 29.91 1013 10 16.0934 N/A
6:55 pm 18:55 Sunny 66 19 19 -7 17 17 NNE 7 11 29.97 1015 10 16.0934 N/A
7:15 pm 19:15 Sunny 63 17.1 19 -7.1 19 19 NE 7 11 29.97 1015 10 16.0934 N/A
7:35 pm 19:35 Sunny 59 15 19 -7.1 21 21 NE 7 11 30 1016 7 11.26538 N/A
7:55 pm 19:55 Clear 55 12.9 19 -7.2 24 24 ENE 5 7 30.03 1017 10 16.0934 N/A
8:15 pm 20:15 Clear 55 12.6 19 -7 25 25 ENE 5 7 30.03 1017 10 16.0934 N/A
8:35 pm 20:35 Clear 51 10.4 19 -7.2 29 29 NE 3 6 30.06 1018 7 11.26538 N/A
8:55 pm 20:55 Clear 44 6.6 19 -7 38 38 NE 5 7 30.09 1019 7 11.26538 N/A
9:15 pm 21:15 Hazy 40 4.7 20 -6.5 44 44 NNE 5 7 30.12 1020 5 8.0467 N/A
9:35 pm 21:35 Clear 39 4.1 20 -6.8 45 45 Calm 30.15 1021 10 16.0934 N/A
9:55 pm 21:55 Clear 38 3.4 21 -6 51 51 Calm 30.15 1021 10 16.0934 N/A
10:15 pm 22:15 Clear 40 4.2 22 -5.8 49 49 WNW 6 9 30.15 1021 10 16.0934 N/A
10:35 pm 22:35 Clear 36 2.1 23 -5.2 59 59 W 6 9 30.18 1022 10 16.0934 N/A
10:55 pm 22:55 Clear 35 1.9 22 -5.5 58 58 WNW 8 13 30.18 1022 10 16.0934 N/A
11:15 pm 23:15 Clear 35 1.5 22 -5.6 60 60 WNW 7 11 30.18 1022 10 16.0934 N/A
11:35 pm 23:35 Clear 35 1.6 22 -5.5 60 60 WNW 5 7 30.18 1022 10 16.0934 N/A
11:55 pm 23:55 Clear 33 0.4 22 -5.4 65 65 WNW 5 7 30.21 1023 10 16.0934 N/A

Powered by AerisWeather